Weather History for Cairo, Egypt

Change the Weather History Date:

Wednesday, October 9, 2013

  Actual Average Record
Temperature  
Mean Temperature 74 °F -  
Max Temperature 86 °F 80 °F 96 °F (2011)
Min Temperature 61 °F 62 °F 61 °F (2013)
Cooling Degree Days 8    
Growing Degree Days 24 (Base 50)    
Moisture  
Dew Point 52 °F    
Average Humidity 51    
Maximum Humidity 77    
Minimum Humidity 10    
Precipitation  
Precipitation 0.00 in 0.00 in - ()
Sea Level Pressure  
Sea Level Pressure 30.02 in    
Wind  
Wind Speed 8 mph ()    
Max Wind Speed 18 mph    
Max Gust Speed -    
Visibility 4.6 miles    
Events      
Averages and records for this station are not official NWS values.
T = Trace of Precipitation, MM = Missing Value Source: Averaged Metar Reports

Daily Weather History Graph

Daily Weather History Graph

Search for Another Location

Airport:

Trip Planner

Search our weather history database for the weather conditions in past years. The results will help you decide how hot, cold, wet, or windy it might be!

Date:

Astronomy

Oct. 09, 2013 Rise Set
Actual Time 5:52 AM EET 5:30 PM EET
Civil Twilight 5:28 AM EET 5:54 PM EET
Nautical Twilight 5:00 AM EET 6:22 PM EET
Astronomical Twilight 4:32 AM EET 6:49 PM EET
Moon 10:11 AM EET (10/9) 9:01 PM EET (10/9)
Length of Visible Light 12h 25m
Length of Day
11h 37m
Waxing Crescent, 22% of the Moon is Illuminated
Oct 9
Waxing Crescent
Oct 12
First Quarter
Oct 19
Full
Oct 27
Last Quarter
Nov 3
New

Hourly Weather History & Observations

Time (EET) Temp. Heat Index Dew Point Humidity Pressure Visibility Wind Dir Wind Speed Gust Speed Precip Events Conditions
12:00 AM 68.0 °F - 53.6 °F 60% 30.06 in 3.7 mi North 6.9 mph - N/A   Unknown
12:30 AM 66.2 °F - 53.6 °F 64% 30.06 in 3.7 mi North 3.5 mph - N/A   Unknown
1:00 AM 64.4 °F - 53.6 °F 68% 30.06 in 3.7 mi NE 4.6 mph - N/A   Unknown
1:30 AM 64.4 °F - 53.6 °F 68% 30.04 in 3.7 mi NE 4.6 mph - N/A   Unknown
2:00 AM 63 °F - 53 °F 61% 30.06 in 6 mi NNE 4.6 mph - -  
2:00 AM 62.6 °F - 53.6 °F 72% 30.04 in - NNE 4.6 mph - N/A   Clear
2:30 AM 62.6 °F - 53.6 °F 72% 30.04 in - NNE 4.6 mph - N/A   Clear
3:00 AM 62.6 °F - 53.6 °F 72% 30.04 in - NE 5.8 mph - N/A   Clear
3:30 AM 62.6 °F - 53.6 °F 72% 30.04 in - NE 6.9 mph - N/A   Clear
4:00 AM 62.6 °F - 55.4 °F 77% 30.04 in - NE 5.8 mph - N/A   Clear
4:30 AM 62.6 °F - 55.4 °F 77% 30.04 in - NE 5.8 mph - N/A   Clear
5:00 AM 62.6 °F - 55.4 °F 77% 30.04 in - NE 4.6 mph - N/A   Clear
5:30 AM 62.6 °F - 55.4 °F 77% 30.04 in - NE 4.6 mph - N/A   Clear
6:00 AM 62.6 °F - 55.4 °F 77% 30.04 in - NE 4.6 mph - N/A   Clear
6:30 AM 62.6 °F - 55.4 °F 77% 30.04 in - NE 4.6 mph - N/A   Clear
7:00 AM 64.4 °F - 57.2 °F 77% 30.04 in - NE 2.3 mph - N/A   Clear
7:30 AM 66.2 °F - 57.2 °F 73% 30.04 in - NE 2.3 mph - N/A   Clear
8:00 AM 68 °F - 58 °F 62% 30.04 in 6 mi NNE 4.6 mph - -  
8:00 AM 68.0 °F - 57.2 °F 68% 30.04 in - NNE 4.6 mph - N/A   Clear
8:30 AM 69.8 °F - 57.2 °F 64% 30.04 in - NNE 4.6 mph - N/A   Clear
9:00 AM 75.2 °F - 60.8 °F 61% 30.04 in - North 9.2 mph - N/A   Clear
9:30 AM 77.0 °F - 59.0 °F 54% 30.04 in - North 15.0 mph - N/A   Clear
10:00 AM 78.8 °F - 59.0 °F 51% 30.01 in - North 16.1 mph - N/A   Clear
10:30 AM 80.6 °F 80.3 °F 53.6 °F 39% 30.01 in - NNE 15.0 mph - N/A   Clear
11:00 AM 80.6 °F 80.5 °F 55.4 °F 42% 30.01 in - NNE 16.1 mph - N/A   Clear
11:30 AM 82.4 °F 81.4 °F 53.6 °F 37% 30.01 in - North 13.8 mph - N/A   Clear
12:00 PM 84.2 °F - 50.0 °F 30% 29.98 in - NE 16.1 mph - N/A   Clear
12:30 PM 86.0 °F - 37.4 °F 18% 29.98 in - NNE 18.4 mph - N/A   Clear
1:00 PM 86.0 °F - 35.6 °F 17% 29.98 in - NNE 13.8 mph - N/A   Clear
1:30 PM 86.0 °F - 41.0 °F 20% 29.95 in - NNE 17.3 mph - N/A   Clear
2:00 PM 87 °F - 39 °F 10% 29.95 in 6 mi NNE 13.8 mph - -  
2:00 PM 86.0 °F - 39.2 °F 19% 29.95 in - NNE 13.8 mph - N/A   Clear
2:30 PM 86.0 °F - 46.4 °F 25% 29.95 in - North 17.3 mph - N/A   Clear
3:00 PM 87.8 °F - 46.4 °F 24% 29.95 in - NNE 16.1 mph - N/A   Clear
3:30 PM 86.0 °F - 48.2 °F 27% 29.95 in - North 18.4 mph - N/A   Clear
4:00 PM 86.0 °F - 46.4 °F 25% 29.95 in - North 16.1 mph - N/A   Clear
4:30 PM 86.0 °F - 44.6 °F 23% 29.95 in - NNE 18.4 mph - N/A   Clear
5:00 PM 84.2 °F - 44.6 °F 25% 29.95 in - NNE 17.3 mph - N/A   Clear
5:30 PM 82.4 °F - 46.4 °F 28% 29.98 in - North 17.3 mph - N/A   Clear
6:00 PM 80.6 °F - 50.0 °F 34% 29.98 in - North 17.3 mph - N/A   Clear
6:30 PM 78.8 °F - 53.6 °F 42% 30.01 in - North 13.8 mph - N/A   Clear
7:00 PM 77.0 °F - 55.4 °F 47% 30.01 in - North 16.1 mph - N/A   Clear
7:30 PM 75.2 °F - 55.4 °F 50% 30.01 in - NNE 15.0 mph - N/A   Clear
8:00 PM 75 °F - 56 °F 41% 30.02 in 6 mi NNE 15.0 mph - -  
8:00 PM 75.2 °F - 55.4 °F 50% 30.01 in - NNE 15.0 mph - N/A   Clear
8:30 PM 73.4 °F - 55.4 °F 53% 30.04 in - NNE 15.0 mph - N/A   Clear
9:00 PM 73.4 °F - 55.4 °F 53% 30.04 in - North 12.7 mph - N/A   Clear
9:30 PM 73.4 °F - 55.4 °F 53% 30.04 in - North 12.7 mph - N/A   Clear
10:00 PM 71.6 °F - 55.4 °F 57% 30.04 in - NNE 10.4 mph - N/A   Clear
10:30 PM 69.8 °F - 55.4 °F 60% 30.04 in - NNE 10.4 mph - N/A   Clear
11:00 PM 69.8 °F - 57.2 °F 64% 30.04 in - NNE 8.1 mph - N/A   Clear
11:30 PM 69.8 °F - 57.2 °F 64% 30.04 in 3.7 mi NNE 8.1 mph - N/A   Unknown
11:31 PM 68.0 °F - 57.2 °F 68% 30.04 in 3.7 mi NNE 8.1 mph - N/A   Unknown